Terminal Aerodrome Forecast
Issued by NWS Tulsa, OK

Home | Current Version | Previous Version | Text Only | Print | Product List | Glossary On
Versions: 1 2 3 4 5 6 7 8 9 10 11 12 13 14 15 16 17 18
928
FTUS44 KTSA 300520
TAFFSM
TAF
KFSM 300520Z 3006/3106 28012KT P6SM SCT250
     FM301200 26011KT P6SM OVC050
     FM301500 25012G20KT P6SM OVC025
     FM302100 26013G20KT P6SM OVC050
     FM310300 28006KT P6SM SKC=

USA.gov is the U.S. government's official web portal to all federal, state and local government web resources and services.